• In United Kingdom
  • List of Countries
  • For 7 days
  • Water Temperature
  • Satellite Maps
  • Weather Map
  • Weather Widgets
  • user-avatar
    Login

    Hourly Weather Eisenstadt

    Today, 24 November, Friday

    Time Temperature Precipitation Wind Pressure Humidity
    00:00 +4°C° 0 mm 1 mps 723 mmHg 81%
    01:00 +4°C° 0 mm 1 mps 723 mmHg 81%
    02:00 +4°C° 0 mm 1 mps 723 mmHg 81%
    03:00 +4°C° 0 mm 1 mps 723 mmHg 82%
    04:00 +4°C° 0 mm 1 mps 723 mmHg 83%
    05:00 +4°C° 0 mm 1 mps 723 mmHg 83%
    06:00 +4°C° 0 mm 1 mps 723 mmHg 83%
    07:00 +4°C° 0 mm 1 mps 723 mmHg 83%
    08:00 +6°C° 0 mm 1 mps 723 mmHg 78%
    09:00 +7°C° 0 mm 1 mps 723 mmHg 74%
    10:00 +9°C° 0 mm 1 mps 724 mmHg 69%
    11:00 +10°C° 0 mm 1 mps 723 mmHg 67%
    12:00 +11°C° 0 mm 1 mps 723 mmHg 65%
    13:00 +12°C° 0 mm 2 mps 723 mmHg 62%
    14:00 +9°C° 0 mm 2 mps 723 mmHg 68%
    15:00 +8°C° 0 mm 2 mps 723 mmHg 73%
    16:00 +7°C° 0 mm 2 mps 723 mmHg 79%
    17:00 +7°C° 0 mm 2 mps 723 mmHg 81%
    18:00 +6°C° 0 mm 2 mps 723 mmHg 82%
    19:00 +6°C° 0 mm 2 mps 723 mmHg 84%
    20:00 +6°C° 0 mm 2 mps 723 mmHg 84%
    21:00 +6°C° 0 mm 2 mps 723 mmHg 84%
    22:00 +5°C° 0 mm 2 mps 723 mmHg 84%
    23:00 +5°C° 0 mm 2 mps 722 mmHg 85%

    Tomorrow, 25 November, Saturday

    Time Temperature Precipitation Wind Pressure Humidity
    00:00 +5°C° 0 mm 2 mps 722 mmHg 86%
    01:00 +5°C° 0 mm 2 mps 722 mmHg 87%
    02:00 +4°C° 0 mm 3 mps 721 mmHg 88%
    03:00 +4°C° 0 mm 3 mps 721 mmHg 90%
    04:00 +4°C° 0 mm 3 mps 720 mmHg 91%
    05:00 +4°C° 0 mm 3 mps 720 mmHg 91%
    06:00 +4°C° 0 mm 3 mps 719 mmHg 91%
    07:00 +4°C° 0 mm 4 mps 719 mmHg 91%
    08:00 +5°C° 0 mm 4 mps 718 mmHg 87%
    09:00 +6°C° 0 mm 5 mps 718 mmHg 84%
    10:00 +8°C° 0 mm 6 mps 717 mmHg 80%
    11:00 +8°C° 0 mm 6 mps 717 mmHg 77%
    12:00 +9°C° 0 mm 6 mps 716 mmHg 75%
    13:00 +10°C° 0 mm 7 mps 716 mmHg 72%
    14:00 +10°C° 0 mm 6 mps 716 mmHg 74%
    15:00 +9°C° 0 mm 5 mps 716 mmHg 76%
    16:00 +10°C° 0 mm 4 mps 716 mmHg 77%
    17:00 +8°C° 0.3 mm 4 mps 716 mmHg 79%
    18:00 +9°C° 0.3 mm 3 mps 717 mmHg 81%
    19:00 +8°C° 0.3 mm 3 mps 717 mmHg 83%
    20:00 +8°C° 1.1 mm 3 mps 717 mmHg 84%
    21:00 +8°C° 1.1 mm 3 mps 718 mmHg 84%
    22:00 +7°C° 1.1 mm 3 mps 718 mmHg 84%
    23:00 +7°C° 0.5 mm 3 mps 719 mmHg 84%

    Day after tomorrow, 26 November, Sunday

    Time Temperature Precipitation Wind Pressure Humidity
    00:00 +5°C° 0.5 mm 3 mps 719 mmHg 84%
    01:00 +5°C° 0.5 mm 3 mps 719 mmHg 83%
    02:00 +4°C° 0.6 mm 4 mps 719 mmHg 83%
    03:00 +4°C° 0.6 mm 4 mps 720 mmHg 83%
    04:00 +3°C° 0.6 mm 5 mps 720 mmHg 83%
    05:00 +2°C° 0.2 mm 5 mps 720 mmHg 82%
    06:00 +2°C° 0.2 mm 5 mps 721 mmHg 81%
    07:00 +2°C° 0.2 mm 5 mps 721 mmHg 80%
    08:00 +2°C° 0 mm 6 mps 722 mmHg 77%
    09:00 +2°C° 0 mm 6 mps 722 mmHg 75%
    10:00 +2°C° 0 mm 7 mps 722 mmHg 72%
    11:00 +2°C° 0 mm 7 mps 723 mmHg 69%
    12:00 +2°C° 0 mm 7 mps 723 mmHg 65%
    13:00 +1°C° 0 mm 8 mps 723 mmHg 62%
    14:00 +2°C° 0 mm 7 mps 724 mmHg 64%
    15:00 +2°C° 0 mm 7 mps 724 mmHg 65%
    16:00 0°C° 0 mm 7 mps 724 mmHg 66%
    17:00 0°C° 0 mm 7 mps 725 mmHg 67%
    18:00 0°C° 0 mm 7 mps 725 mmHg 68%
    19:00 -1°C° 0 mm 7 mps 726 mmHg 68%
    20:00 -1°C° 0 mm 7 mps 726 mmHg 68%
    21:00 -2°C° 0 mm 7 mps 727 mmHg 68%
    22:00 -2°C° 0 mm 7 mps 727 mmHg 68%
    23:00 -2°C° 0 mm 7 mps 727 mmHg 68%

    27 November, Monday

    Time Temperature Precipitation Wind Pressure Humidity
    00:00 -3°C° 0 mm 7 mps 728 mmHg 68%
    01:00 -3°C° 0 mm 6 mps 728 mmHg 68%
    02:00 -3°C° 0 mm 6 mps 728 mmHg 68%
    03:00 -3°C° 0 mm 6 mps 728 mmHg 69%
    04:00 -4°C° 0 mm 5 mps 728 mmHg 70%
    05:00 -4°C° 0 mm 5 mps 728 mmHg 71%
    06:00 -4°C° 0 mm 5 mps 729 mmHg 72%
    07:00 -4°C° 0 mm 5 mps 729 mmHg 73%
    08:00 -2°C° 0 mm 5 mps 729 mmHg 69%
    09:00 -1°C° 0 mm 5 mps 730 mmHg 65%
    10:00 -1°C° 0 mm 6 mps 730 mmHg 61%
    11:00 -1°C° 0 mm 6 mps 730 mmHg 59%
    12:00 +1°C° 0 mm 6 mps 730 mmHg 57%
    13:00 +1°C° 0 mm 6 mps 729 mmHg 55%
    14:00 +1°C° 0 mm 5 mps 729 mmHg 58%
    15:00 0°C° 0 mm 4 mps 729 mmHg 61%
    16:00 -1°C° 0 mm 4 mps 729 mmHg 65%
    17:00 -1°C° 0 mm 3 mps 729 mmHg 67%
    18:00 -1°C° 0 mm 3 mps 729 mmHg 70%
    19:00 -2°C° 0 mm 3 mps 729 mmHg 73%
    20:00 -2°C° 0 mm 3 mps 729 mmHg 73%
    21:00 -2°C° 0 mm 2 mps 729 mmHg 74%
    22:00 -2°C° 0 mm 2 mps 729 mmHg 74%
    23:00 -3°C° 0 mm 2 mps 729 mmHg 74%

    28 November, Tuesday

    Time Temperature Precipitation Wind Pressure Humidity
    00:00 -1°C° 0 mm 1 mps 729 mmHg 74%
    01:00 -1°C° 0 mm 1 mps 728 mmHg 73%
    02:00 -1°C° 0 mm 1 mps 728 mmHg 72%
    03:00 -1°C° 0 mm 1 mps 728 mmHg 71%
    04:00 -1°C° 0 mm 1 mps 727 mmHg 70%
    05:00 -1°C° 0 mm 1 mps 727 mmHg 68%
    06:00 -1°C° 0 mm 1 mps 727 mmHg 67%
    07:00 -1°C° 0 mm 1 mps 727 mmHg 66%
    08:00 0°C° 0 mm 1 mps 726 mmHg 60%
    09:00 +2°C° 0 mm 1 mps 726 mmHg 55%
    10:00 +2°C° 0 mm 2 mps 726 mmHg 49%
    11:00 +3°C° 0 mm 2 mps 725 mmHg 48%
    12:00 +4°C° 0 mm 2 mps 724 mmHg 46%
    13:00 +4°C° 0 mm 3 mps 724 mmHg 44%
    14:00 +3°C° 0 mm 3 mps 723 mmHg 50%
    15:00 +1°C° 0 mm 3 mps 722 mmHg 56%
    16:00 0°C° 0 mm 3 mps 722 mmHg 62%
    17:00 -1°C° 0 mm 3 mps 722 mmHg 65%
    18:00 -1°C° 0 mm 3 mps 721 mmHg 67%
    19:00 -2°C° 0 mm 3 mps 721 mmHg 70%
    20:00 -2°C° 0 mm 3 mps 721 mmHg 70%
    21:00 -2°C° 0 mm 3 mps 721 mmHg 71%
    22:00 -2°C° 0 mm 3 mps 720 mmHg 71%
    23:00 -4°C° 0 mm 3 mps 720 mmHg 71%

    29 November, Wednesday

    Time Temperature Precipitation Wind Pressure Humidity
    00:00 -4°C° 0 mm 3 mps 720 mmHg 72%
    01:00 -3°C° 0 mm 2 mps 719 mmHg 72%
    02:00 -3°C° 0 mm 2 mps 719 mmHg 72%
    03:00 -3°C° 0 mm 2 mps 719 mmHg 73%
    04:00 -3°C° 0 mm 2 mps 718 mmHg 73%
    05:00 -3°C° 0 mm 2 mps 718 mmHg 74%
    06:00 -3°C° 0 mm 2 mps 718 mmHg 74%
    07:00 -4°C° 0 mm 2 mps 718 mmHg 75%
    08:00 -2°C° 0 mm 2 mps 718 mmHg 70%
    09:00 -1°C° 0 mm 2 mps 718 mmHg 65%
    10:00 +1°C° 0 mm 2 mps 718 mmHg 60%
    11:00 +2°C° 0 mm 2 mps 718 mmHg 57%
    12:00 +3°C° 0 mm 2 mps 717 mmHg 54%
    13:00 +4°C° 0 mm 2 mps 717 mmHg 51%
    14:00 +4°C° 0 mm 1 mps 717 mmHg 55%
    15:00 +3°C° 0 mm 1 mps 717 mmHg 60%
    16:00 +2°C° 0 mm 1 mps 717 mmHg 65%
    17:00 +1°C° 0 mm 0 mps 717 mmHg 66%
    18:00 +1°C° 0 mm 0 mps 718 mmHg 67%
    19:00 +1°C° 0 mm 0 mps 718 mmHg 67%
    20:00 +1°C° 0 mm 0 mps 718 mmHg 69%
    21:00 +2°C° 0 mm 1 mps 718 mmHg 70%
    22:00 +2°C° 0 mm 1 mps 719 mmHg 72%
    23:00 +2°C° 0.8 mm 1 mps 719 mmHg 75%
    Show more